Opa Locka, FL

12:04 AM EDT on September 01, 2016 (GMT -0400)
Opa Locka

Weather History for KOPF - February, 2013

Change the Weather History Date:

Sunday, February 17, 2013

  Actual Average Record
Temperature  
Mean Temperature 53 °F -  
Max Temperature 60 °F 77 °F 86 °F (1952)
Min Temperature 46 °F 59 °F 40 °F (1958)
Degree Days  
Heating Degree Days 12    
Growing Degree Days 3 (Base 50)    
Moisture  
Dew Point 28 °F    
Average Humidity 41    
Maximum Humidity 69    
Minimum Humidity 23    
Precipitation  
Precipitation 0.00 in - - ()
Sea Level Pressure  
Sea Level Pressure 30.24 in    
Wind  
Wind Speed 14 mph (NNW)    
Max Wind Speed 20 mph    
Max Gust Speed 31 mph    
Visibility 10 miles    
Events      
Averages and records for this station are not official NWS values.
T = Trace of Precipitation, MM = Missing Value Source: NWS Daily Summary

Daily Weather History Graph

Daily Weather History Graph

Search for Another Location

Airport or City:

Trip Planner

Search our weather history database for the weather conditions in past years. The results will help you decide how hot, cold, wet, or windy it might be!

Date:

Astronomy

Feb. 17, 2013 Rise Set
Actual Time 6:54 AM EST 6:15 PM EST
Civil Twilight 6:31 AM EST 6:39 PM EST
Nautical Twilight 6:04 AM EST 7:06 PM EST
Astronomical Twilight 5:37 AM EST 7:33 PM EST
Moon 11:32 AM EST (2/17) 12:25 AM EST (2/17)
Length of Visible Light 12h 08m
Length of Day
11h 21m
Waxing Crescent, 49% of the Moon is Illuminated
Feb 17
Waxing Crescent
Feb 17
First Quarter
Feb 25
Full
Mar 4
Last Quarter
Mar 11
New

Hourly Weather History & Observations

Time (EST) Temp. Dew Point Humidity Pressure Visibility Wind Dir Wind Speed Gust Speed Precip Events Conditions
12:53 AM 55.0 °F 44.1 °F 67% 30.11 in 10.0 mi NW 13.8 mph - N/A   Clear
1:53 AM 54.0 °F 44.1 °F 69% 30.11 in 10.0 mi NW 13.8 mph - N/A   Clear
2:53 AM 54.0 °F 42.1 °F 64% 30.11 in 10.0 mi NNW 17.3 mph - N/A   Clear
3:53 AM 53.1 °F 39.0 °F 59% 30.13 in 10.0 mi NNW 12.7 mph 23.0 mph N/A   Clear
4:53 AM 50.0 °F 35.1 °F 57% 30.15 in 10.0 mi North 15.0 mph 26.5 mph N/A   Clear
5:53 AM 48.9 °F 33.1 °F 54% 30.19 in 10.0 mi North 15.0 mph 23.0 mph N/A   Clear
6:53 AM 46.9 °F 28.9 °F 50% 30.21 in 10.0 mi North 18.4 mph 24.2 mph N/A   Clear
7:53 AM 48.0 °F 21.9 °F 36% 30.24 in 10.0 mi North 17.3 mph 23.0 mph N/A   Clear
8:53 AM 50.0 °F 21.0 °F 32% 30.27 in 10.0 mi NNW 18.4 mph 25.3 mph N/A   Clear
9:53 AM 52.0 °F 21.0 °F 30% 30.29 in 10.0 mi North 19.6 mph 31.1 mph N/A   Clear
10:53 AM 54.0 °F 21.0 °F 28% 30.30 in 10.0 mi North 18.4 mph 26.5 mph N/A   Clear
11:53 AM 55.9 °F 21.9 °F 27% 30.29 in 10.0 mi NNW 19.6 mph 27.6 mph N/A   Clear
12:53 PM 57.2 °F 21.2 °F 25% 30.27 in 10.0 mi NNW 15.0 mph 20.7 mph N/A   Clear
1:53 PM 57.9 °F 21.0 °F 24% 30.27 in 10.0 mi North 16.1 mph - N/A   Clear
2:53 PM 60.1 °F 21.9 °F 23% 30.26 in 10.0 mi North 13.8 mph - N/A   Clear
3:53 PM 59.0 °F 21.9 °F 24% 30.26 in 10.0 mi NNW 11.5 mph 18.4 mph N/A   Clear
4:53 PM 59.0 °F 23.0 °F 25% 30.26 in 10.0 mi North 8.1 mph - N/A   Clear
5:53 PM 55.9 °F 23.0 °F 28% 30.27 in 10.0 mi North 4.6 mph - N/A   Clear
6:53 PM 54.0 °F 25.0 °F 33% 30.29 in 10.0 mi NNW 5.8 mph - N/A   Clear
7:53 PM 52.0 °F 28.0 °F 40% 30.30 in 10.0 mi NNW 6.9 mph - N/A   Clear
8:53 PM 51.1 °F 33.1 °F 50% 30.31 in 10.0 mi North 8.1 mph - N/A   Clear
9:53 PM 50.0 °F 30.9 °F 48% 30.32 in 10.0 mi North 6.9 mph - N/A   Clear
10:53 PM 50.0 °F 33.1 °F 52% 30.32 in 10.0 mi North 6.9 mph - N/A   Clear